EHI
0 0 0 0 0 0 0 0 0 0 0 0 0 0 0 0 0 0 0 0 0 0 0 0 0 0 0 0 0 0 0 1 2 2 3 4 3 1 0 0 0 0 0 0 0 0 0 0 0
0 0 0 0 0 0 0 0 0 0 0 0 0 0 0 0 0 0 0 0 0 0 0 0 0 0 0 0 0 0 0 0 1 1 2 3 2 1 0 0 0 0 0 0 0 0 0 0 0
0 0 0 0 0 0 0 0 0 0 0 0 0 0 0 0 0 0 0 0 0 0 0 0 0 0 0 0 0 0 0 0 0 0 1 1 1 0 0 0 0 0 0 0 0 1 0 0 0
0 0 0 0 0 0 0 0 0 0 0 0 0 0 0 0 0 0 0 0 0 0 0 0 0 0 0 0 0 1 0 0 0 0 0 0 0 0 0 0 0 0 0 0 0 0 0 0 0
0 0 0 0 0 0 0 0 0 0 0 0 0 0 0 0 0 0 0 0 0 0 0 0 0 0 0 0 0 0 0 0 0 0 0 0 0 0 0 0 0 0 0 0 0 0 0 0 0
0 0 0 0 0 0 0 0 0 0 0 0 0 0 0 0 0 0 0 0 0 0 0 0 0 0 0 0 0 0 0 0 0 0 0 0 0 0 0 0 0 0 0 0 0 0 0 0 0
0 0 0 0 0 0 0 0 0 0 0 0 0 0 0 0 0 0 0 0 0 0 0 0 0 0 0 0 0 0 0 0 0 0 0 0 0 0 0 0 0 0 0 0 0 0 0 0 0
0 0 0 0 0 0 0 0 0 0 0 0 0 0 0 0 0 0 0 0 0 0 0 0 0 0 0 0 0 0 0 0 0 0 0 0 0 0 0 0 0 0 0 0 0 0 0 0 0
0 0 0 0 0 0 0 0 0 0 0 0 0 0 0 0 0 0 0 0 0 0 0 0 0 0 0 0 0 0 0 0 0 0 0 0 0 0 0 0 0 0 0 0 0 0 0 0 0
0 0 0 0 0 0 0 0 0 0 0 0 0 0 0 0 0 0 0 0 0 0 0 0 0 0 0 0 0 0 0 0 0 0 0 0 0 0 0 0 1 0 0 0 0 0 0 0 0
0 0 0 0 0 0 0 0 0 0 0 0 0 0 0 0 0 0 0 0 0 0 0 0 0 0 0 0 0 0 0 0 0 0 0 0 0 0 0 0 0 0 0 0 0 0 0 0 0
0 0 0 0 0 0 0 0 0 0 0 0 0 0 0 0 0 0 0 0 0 0 0 0 0 0 0 0 0 0 0 0 0 0 0 0 0 0 0 0 0 0 0 0 0 0 0 0 0
0 0 0 0 0 0 0 0 0 0 0 0 0 0 0 0 0 0 0 0 0 0 0 0 0 0 0 0 0 0 0 0 0 0 0 0 0 0 0 0 0 0 0 0 0 0 0 0 0
0 0 0 0 0 0 0 0 0 0 0 0 0 0 0 0 0 0 0 0 0 0 0 0 0 0 0 0 0 0 0 0 0 0 0 0 0 0 0 0 0 0 0 0 0 0 0 0 0
0 0 0 0 0 0 0 0 0 0 0 0 0 0 0 0 0 0 0 0 0 0 0 0 0 0 0 0 0 0 0 0 0 0 0 0 0 0 0 0 0 0 0 0 0 0 0 0 0
0 0 0 0 0 0 0 0 0 0 0 0 0 0 0 0 0 0 0 0 0 0 0 0 0 0 0 0 0 0 0 0 0 0 0 0 0 0 0 0 0 0 0 0 0 0 0 0 0
0 0 0 0 0 0 0 0 0 0 0 0 0 0 0 0 0 0 0 0 0 0 0 0 0 0 0 0 0 0 0 0 0 0 0 0 0 0 0 0 0 0 0 0 0 0 0 0 0
0 0 0 0 0 0 0 0 0 0 0 0 0 0 0 0 0 0 0 0 0 0 0 0 0 0 0 0 0 0 0 0 0 0 0 0 0 0 0 0 0 0 0 0 0 0 0 0 0
0 0 0 0 0 0 0 0 0 0 0 0 0 0 0 0 0 0 0 0 0 0 0 0 0 0 0 0 0 0 0 0 0 0 0 0 0 0 0 0 0 0 0 0 0 0 0 0 0
0 0 0 0 0 0 0 0 0 0 0 0 0 0 0 0 0 0 0 0 0 0 0 0 0 0 0 0 0 0 0 0 0 0 0 0 0 0 0 0 0 0 0 0 0 0 0 0 0
0 0 0 0 0 0 0 0 0 0 0 0 0 0 0 0 0 0 0 0 0 0 0 0 0 0 0 0 0 0 0 0 0 0 0 0 0 0 0 0 0 0 0 0 0 0 0 0 0
0 0 0 0 0 0 0 0 0 0 0 0 0 0 0 0 0 0 0 0 0 0 0 0 0 0 0 0 0 0 0 0 0 0 0 0 0 0 0 0 0 0 0 0 0 0 0 0 0
0 0 0 0 0 0 0 0 0 0 0 0 0 0 0 0 0 0 0 0 0 0 0 0 0 0 0 0 0 0 0 0 0 0 0 0 0 0 0 0 0 0 0 0 0 0 0 0 0
0 0 0 0 0 0 0 0 0 0 0 0 0 0 0 0 0 0 0 0 0 0 0 0 0 0 0 0 0 0 0 0 0 0 0 0 0 0 0 0 0 0 0 0 0 0 0 0 0
0 0 0 0 0 0 0 0 0 0 0 0 0 0 0 0 0 0 0 0 0 0 0 0 0 0 0 0 0 0 0 0 0 0 0 0 0 0 0 0 0 0 0 0 0 0 0 0 0
0 0 0 0 0 0 0 0 0 0 0 0 0 0 0 0 0 0 0 0 0 0 0 0 0 0 0 0 0 0 0 0 0 0 0 0 0 0 0 0 0 0 0 0 0 0 0 0 0
0 0 0 0 0 0 0 0 0 0 0 0 0 0 0 0 0 0 0 0 0 0 0 0 0 0 0 0 0 0 0 0 0 0 0 0 0 0 0 0 0 0 0 0 0 0 0 0 0
0 0 0 0 0 0 0 0 0 0 0 0 0 0 0 0 0 0 0 0 0 0 0 0 0 0 0 0 0 0 0 0 0 0 0 0 0 0 0 0 0 0 0 0 0 0 0 0 0
0 0 0 0 0 0 0 0 0 0 0 0 0 0 0 0 0 0 0 0 0 0 0 0 0 0 0 0 0 0 0 0 0 0 0 0 0 0 0 0 0 0 0 0 0 0 0 0 0
0 0 0 0 0 0 0 0 0 0 0 0 0 0 0 0 0 0 0 0 0 0 0 0 0 0 0 0 0 0 0 0 0 0 0 0 0 0 0 0 0 0 0 0 0 0 0 0 0
Wind_Speed
1 3 2 3 5 5 2 2 1 1 2 2 3 5 5 4 2 2 0 1 2 1 1 2 4 5 5 6 7 8 8 8 8 8 8 8 8 8 8 8 9 8 9 8 8 9 9 9 9
2 2 4 5 5 3 1 1 1 1 3 3 4 4 5 4 3 3 1 1 2 2 1 2 5 5 6 6 7 8 8 8 7 7 8 8 8 8 7 8 8 8 8 8 8 8 8 9 9
2 3 4 4 4 2 0 1 1 2 3 2 3 4 4 3 2 1 1 2 2 2 2 2 5 5 6 6 7 7 7 7 7 7 8 7 7 7 7 8 8 8 8 8 8 8 8 8 9
3 4 5 5 3 1 0 0 0 2 3 4 3 4 3 2 1 2 3 3 3 2 2 1 5 5 5 6 6 6 6 6 7 7 7 7 7 7 7 8 8 7 8 8 8 8 8 8 9
4 4 5 4 2 2 1 1 1 2 2 3 3 4 2 3 3 5 4 3 3 2 1 1 4 4 4 5 6 6 6 7 7 7 6 6 7 7 7 7 7 7 8 8 8 8 8 8 8
4 4 5 2 1 2 2 1 2 3 2 2 3 3 2 1 3 3 4 3 2 2 2 2 3 4 4 4 5 6 6 7 6 6 6 7 6 7 7 7 7 7 7 8 8 8 8 8 8
4 4 3 2 1 2 1 1 2 2 2 1 3 4 1 1 2 3 3 3 3 2 3 3 3 3 3 4 5 5 6 6 6 6 6 6 7 7 7 7 7 7 7 7 8 8 8 9 9
4 5 3 1 1 1 1 1 1 2 2 2 2 4 3 3 4 4 4 3 3 3 3 3 3 4 4 3 4 5 6 6 6 6 6 7 7 7 7 6 7 7 7 7 8 8 9 9 10
3 5 1 2 2 1 0 1 1 2 3 2 2 1 3 7 7 6 4 3 2 2 2 2 3 3 3 3 4 5 6 7 7 6 7 6 4 4 4 5 7 8 8 8 8 9 9 9 9
4 3 2 2 2 2 1 1 1 2 2 2 2 3 6 7 7 6 4 3 1 0 1 1 2 2 3 3 3 3 3 4 4 3 4 3 3 3 4 6 8 9 8 8 9 10 9 7 4
3 3 1 0 1 2 2 1 1 3 1 2 4 6 7 7 6 5 4 3 2 1 1 0 1 1 2 2 2 2 2 2 3 4 4 3 3 3 4 3 4 5 6 5 6 6 4 4 3
3 1 1 0 1 2 2 2 2 1 2 2 5 7 7 7 6 6 5 3 2 1 1 1 1 1 2 2 2 2 2 2 2 2 3 3 2 3 3 2 3 3 2 3 3 3 4 4 4
2 1 1 2 3 3 4 3 2 1 1 4 7 7 6 5 4 3 3 3 2 2 2 1 1 2 2 2 1 2 1 1 1 2 2 2 2 2 2 2 2 2 2 3 3 4 5 5 5
1 2 2 2 3 2 4 2 2 2 2 5 6 5 4 4 4 3 3 3 3 2 2 1 2 2 3 2 1 1 1 1 2 2 2 2 2 2 2 2 2 2 2 2 3 4 4 4 4
3 4 4 2 2 1 3 3 1 2 3 4 3 3 3 3 4 4 5 4 3 2 2 2 2 2 3 2 1 1 2 2 2 2 2 2 2 2 2 2 2 2 2 3 3 4 4 4 5
3 3 2 2 1 1 3 1 3 1 4 3 2 2 2 3 4 4 4 4 4 3 3 2 3 3 3 2 2 2 2 2 2 2 2 2 2 3 3 2 2 2 3 3 3 3 4 4 4
3 1 1 2 0 1 2 3 3 1 3 2 2 2 2 2 2 3 4 4 4 4 3 3 3 3 3 2 2 2 2 3 2 2 2 2 3 3 3 2 2 3 3 3 3 3 3 3 3
1 1 0 1 1 2 1 3 3 1 3 3 2 2 2 3 4 3 4 4 4 4 3 3 2 2 3 2 2 2 3 3 2 2 2 3 2 3 3 3 3 3 3 3 3 3 3 3 3
3 2 1 2 1 2 2 4 4 2 3 3 2 2 3 4 3 3 4 4 4 4 3 3 3 2 2 2 1 2 1 1 2 2 3 3 3 3 3 3 3 3 3 3 3 3 4 3 2
3 2 1 2 1 2 1 4 4 2 4 5 5 5 5 3 2 3 4 4 4 4 3 3 3 2 2 2 1 1 1 1 1 1 3 3 3 2 3 3 3 3 3 3 3 3 2 2 2
1 3 3 1 2 3 1 4 3 3 2 3 4 5 5 6 6 5 5 5 5 5 5 5 4 3 2 2 2 2 2 2 2 2 2 2 2 3 3 3 3 3 3 3 2 2 3 2 2
1 2 3 2 2 2 1 3 5 3 3 4 5 5 6 6 6 6 6 6 6 5 4 4 4 4 3 3 3 3 2 1 0 0 1 2 3 3 3 3 3 3 3 2 2 2 2 3 1
2 2 3 2 2 1 2 0 7 2 4 6 6 6 7 7 7 7 7 7 6 5 4 4 4 3 3 3 4 4 2 1 1 1 2 2 2 3 2 3 3 3 2 2 2 3 2 2 2
4 5 5 5 4 2 2 2 6 4 6 5 5 5 6 7 7 7 6 5 4 4 4 4 4 3 3 4 4 4 4 3 2 1 1 1 1 2 2 2 2 2 2 2 2 2 3 2 2
4 5 4 4 4 3 2 1 7 6 5 5 6 5 5 6 7 6 7 6 6 6 5 4 5 4 4 4 4 4 4 4 3 2 2 1 1 1 1 1 2 2 2 2 2 3 2 2 2
3 6 5 3 3 4 3 3 7 5 4 3 3 3 3 6 6 7 8 7 7 7 6 6 6 5 5 5 4 3 4 3 2 2 2 2 1 1 1 1 2 2 2 2 3 2 2 2 2
4 2 4 5 1 1 4 5 7 2 2 1 1 2 3 5 6 7 7 7 7 7 7 7 7 5 5 5 4 4 4 3 3 3 2 2 2 1 2 2 2 2 2 3 3 2 2 2 2
4 7 5 4 3 1 4 4 4 5 3 2 2 2 3 4 5 6 6 7 6 6 5 5 5 6 5 5 5 4 4 4 4 3 3 3 2 2 2 2 2 2 2 2 3 2 2 3 2
3 3 4 4 4 4 2 6 6 6 4 4 4 4 4 5 6 6 6 5 5 5 5 5 5 4 4 5 4 4 3 3 3 3 3 3 3 3 2 2 2 2 2 2 2 2 2 2 2
4 5 6 4 3 3 3 7 5 4 4 4 4 4 3 5 5 5 5 5 5 5 5 5 5 5 5 5 4 4 4 3 3 3 3 3 3 3 3 3 2 2 2 2 2 2 2 2 2
Wind_Direction
51 73 67 54 54 53 46 340 319 42 58 41 53 75 83 68 71 117 339 104 120 111 50 94 97 93 92 95 91 88 85 84 83 82 84 86 86 88 88 88 85 83 82 78 74 71 72 71 72
100 79 51 56 75 64 353 323 42 50 132 135 62 65 74 68 67 90 64 86 113 116 70 84 98 91 88 89 90 86 84 82 82 83 83 84 84 85 89 88 84 82 81 80 74 71 71 72 72
92 54 71 65 74 123 172 329 82 62 93 95 70 51 72 81 90 114 155 124 94 88 65 91 95 92 90 89 91 86 84 81 79 80 83 81 82 83 86 85 84 82 81 77 74 72 71 72 70
73 45 53 66 64 341 242 315 17 90 66 56 85 71 62 34 118 137 127 110 97 78 62 92 98 94 93 91 92 88 85 83 81 80 81 81 81 84 85 84 80 80 78 75 74 72 74 75 70
62 71 60 54 27 345 355 347 25 61 62 50 80 85 56 10 90 115 115 110 107 75 48 80 106 101 97 92 93 87 84 83 80 79 79 81 79 80 83 81 78 77 74 73 73 72 75 76 74
57 65 78 75 360 348 3 8 68 66 80 83 89 94 60 35 99 115 110 107 103 88 52 39 87 100 99 93 93 88 81 74 69 71 73 74 75 73 75 74 73 73 72 72 70 71 75 73 71
100 88 102 122 55 357 7 27 73 89 89 102 116 107 105 115 128 114 107 95 77 66 53 30 27 47 77 81 86 84 80 73 65 65 66 69 69 69 71 70 73 72 72 72 72 73 74 72 71
115 97 82 99 125 304 330 43 77 88 92 92 106 133 171 183 133 104 91 76 66 57 46 31 27 35 42 46 69 71 68 65 62 58 61 61 59 60 63 65 72 71 70 70 70 73 74 72 71
86 77 116 194 173 212 179 87 49 57 89 72 57 128 154 134 122 107 90 62 50 51 31 29 28 34 38 31 51 50 51 49 47 43 53 51 36 37 47 59 70 72 70 71 70 70 68 67 66
78 106 202 211 185 174 131 104 131 86 76 65 61 75 113 122 129 129 131 134 129 359 343 27 30 27 28 36 44 37 43 38 36 34 39 38 33 33 50 48 58 61 61 65 67 65 63 60 53
98 143 208 236 170 145 115 58 62 118 126 197 170 150 137 132 139 145 152 157 182 220 253 68 45 30 34 35 43 33 33 34 32 37 44 44 41 38 44 44 40 41 50 46 52 54 53 60 60
98 78 157 176 114 110 115 104 71 98 226 187 155 147 146 150 160 166 169 176 182 177 208 162 102 66 50 51 44 42 38 33 31 33 48 59 52 45 44 50 41 40 42 49 51 59 58 61 65
84 77 59 74 71 97 94 88 105 348 44 99 115 127 145 157 164 170 171 176 169 167 168 147 114 105 84 64 43 55 41 43 41 40 52 78 80 67 57 54 53 55 55 59 57 61 63 60 61
99 80 58 42 49 62 94 54 61 311 79 103 122 145 161 170 176 166 165 168 165 168 155 137 124 113 93 76 58 40 38 49 49 40 44 73 91 90 80 67 59 59 61 65 71 72 69 61 62
89 67 28 14 45 71 93 27 331 271 117 120 139 158 176 190 185 189 188 177 173 173 154 149 141 104 95 87 62 50 42 60 55 37 40 67 82 95 95 90 74 70 76 75 73 68 65 65 63
65 60 15 319 45 87 103 287 282 171 135 153 174 190 200 208 200 194 179 168 158 152 149 140 130 111 97 80 65 55 49 62 49 36 44 57 74 95 96 93 80 82 85 81 80 71 70 64 62
36 56 320 315 342 112 130 246 274 154 156 184 208 211 202 211 208 193 178 166 154 153 143 126 111 112 104 86 73 67 63 59 43 38 43 48 64 86 95 92 84 88 84 78 91 75 82 80 72
201 188 275 276 255 117 173 256 285 190 170 202 215 210 200 210 218 199 176 160 149 143 134 124 118 115 106 86 70 57 50 42 38 36 40 55 67 81 90 92 85 87 88 78 81 87 74 79 79
152 148 219 260 224 149 225 261 277 235 188 216 224 219 219 228 220 184 170 156 145 143 141 142 145 145 116 98 89 77 53 25 26 28 41 52 65 80 88 92 84 83 92 98 99 93 80 63 64
133 142 250 307 22 152 246 286 276 219 210 213 212 215 217 212 205 187 170 160 157 159 163 162 173 170 158 136 126 120 113 69 29 17 40 43 57 71 96 98 97 93 97 90 84 93 94 61 43
134 183 207 223 19 34 22 327 302 276 241 231 217 210 209 200 203 191 176 173 167 175 184 181 185 175 166 138 107 80 58 41 28 22 24 18 48 66 82 98 101 97 101 107 100 103 113 115 46
248 219 174 154 83 326 30 308 292 281 283 245 231 218 215 208 200 188 183 181 184 190 184 183 182 176 168 150 136 132 129 129 212 343 32 25 43 61 73 88 95 96 93 101 105 95 104 120 105
197 96 101 101 120 22 13 190 290 316 279 258 238 223 218 206 196 191 191 188 188 182 179 181 174 171 166 161 155 141 131 134 100 76 69 49 39 47 66 83 91 93 92 97 90 88 90 100 121
127 73 57 48 69 10 277 180 285 258 240 256 245 232 218 203 196 192 188 179 183 177 177 172 171 177 168 165 158 156 153 147 127 114 100 64 43 37 52 78 85 91 93 98 98 97 94 91 95
85 85 35 7 15 273 275 203 256 258 238 227 239 242 216 191 185 183 180 184 185 183 184 179 179 187 176 169 168 171 169 165 168 167 159 145 99 54 49 82 93 98 104 105 101 96 90 93 100
152 136 151 183 225 285 325 257 263 276 261 234 221 216 182 178 182 187 189 188 188 188 185 183 186 188 180 175 176 174 172 170 173 167 160 166 165 166 139 115 107 109 108 103 97 87 89 92 95
135 157 158 132 142 318 297 297 308 329 353 8 113 156 182 188 187 189 187 188 189 189 191 188 186 185 184 181 173 174 179 178 176 170 164 166 168 151 136 127 115 102 100 101 100 88 80 85 82
143 143 108 118 142 269 299 293 269 289 289 285 250 217 207 190 189 189 187 189 190 190 188 179 180 185 184 180 181 181 185 186 174 159 168 167 153 135 133 129 126 120 109 106 105 97 85 86 77
124 118 118 121 151 157 260 275 237 234 240 235 239 228 208 194 193 191 188 185 179 173 171 174 178 174 176 180 181 176 181 180 165 166 177 167 150 148 144 141 135 130 122 118 115 112 106 99 80
172 168 150 152 202 172 179 268 275 249 247 227 234 232 215 198 192 186 180 170 168 173 176 179 182 183 185 178 172 178 176 170 169 178 183 166 159 162 160 151 140 138 138 136 136 135 126 126 123